Lid_Strength_Index
4 3 2 2 2 2 2 3 4 3 2 2 2 2 2 1 1 1 1 1 1 1 0 0 0 0 1 1 0 0 1 1 2 3 3 3 4 4 4 4 3 3 2
5 4 3 2 2 3 3 3 3 2 2 2 2 2 1 1 1 1 1 1 1 1 0 0 0 0 0 0 -0 0 1 0 2 2 3 4 3 4 4 4 4 4 3
6 5 4 3 2 3 2 2 3 3 2 2 3 3 3 3 2 2 1 1 0 0 -0 -0 0 -0 -1 0 0 0 1 2 2 1 2 4 5 3 3 3 4 4 4
5 4 4 3 3 2 1 1 2 2 2 2 3 3 3 4 2 2 1 2 1 0 0 0 0 -1 -1 -0 -0 -0 0 0 2 2 3 2 2 4 4 3 5 5 5
5 5 4 3 2 2 1 1 1 2 2 2 3 4 3 3 4 3 2 2 2 1 1 1 0 -0 -1 -0 -0 -0 0 0 1 1 2 3 3 3 4 5 4 6 5
5 4 4 3 3 2 1 1 1 1 2 2 2 3 3 3 3 4 3 2 1 1 0 0 -0 -1 -1 -0 -0 -1 -0 0 0 1 1 2 5 4 5 5 5 7 5
5 5 5 5 3 3 2 2 1 2 1 2 2 2 1 2 2 2 2 2 1 1 0 -0 -0 -0 -1 -1 -1 -0 -0 -0 0 2 3 4 3 1 4 5 6 6 6
5 5 4 4 4 3 2 2 2 2 1 1 2 1 1 1 1 1 1 1 1 0 -0 -0 -1 -1 -1 -1 -1 -0 -0 -0 2 2 2 1 2 1 2 4 6 8 6
5 5 4 4 3 3 2 2 2 2 2 2 1 1 1 1 1 0 1 1 1 1 0 -0 -0 -1 -1 -1 -0 -0 0 0 1 0 0 1 1 1 3 4 3 5 7
5 4 4 4 3 3 3 3 2 2 2 1 1 1 1 1 1 0 1 1 0 1 0 0 -0 -0 -0 -0 -0 0 0 1 1 1 2 2 2 3 4 4 4 4 4
5 5 4 3 3 3 3 3 3 3 2 2 2 2 2 2 1 2 1 1 1 0 0 0 0 0 0 -0 0 1 2 2 2 3 4 3 4 5 5 5 4 4 6
4 4 4 3 3 3 3 4 4 3 3 2 2 2 2 2 2 2 2 1 1 1 1 1 1 1 1 1 2 2 3 4 4 5 5 5 6 6 5 6 7 5 6
6 4 4 4 4 3 3 3 3 3 3 3 3 2 2 2 2 2 2 1 1 1 0 0 0 1 1 1 2 2 3 4 4 5 5 5 6 6 7 8 8 7 7
6 5 4 4 3 3 3 3 3 3 3 3 4 3 3 3 3 2 2 2 1 1 1 0 0 0 0 1 2 3 4 5 4 5 5 6 6 7 8 7 9 7 10
6 6 5 4 3 3 3 2 2 2 2 3 3 3 2 3 3 3 3 2 1 2 2 1 1 0 1 1 2 3 3 4 6 7 7 7 7 8 8 8 9 10 10
5 5 6 5 4 3 3 3 2 2 2 2 2 2 2 2 2 2 2 2 2 2 1 1 1 2 3 8 8 5 5 7 8 9 8 8 9 10 10 10 10 9 12
5 5 6 6 4 3 3 3 2 2 2 2 2 2 2 2 2 2 2 2 2 2 2 2 2 2 3 9 9 9 7 8 8 9 10 10 11 12 12 13 13 12 12
6 5 5 5 4 3 2 2 2 2 2 2 2 2 2 2 2 2 2 1 1 2 3 3 4 4 6 10 11 12 9 9 10 10 10 12 13 13 14 14 15 14 13
6 6 5 5 5 4 3 3 3 2 3 3 2 2 2 2 2 2 2 4 5 7 8 7 8 9 11 12 12 11 12 13 14 13 13 13 14 13 13 14 15 14 14
6 6 5 6 6 5 3 3 3 3 3 3 2 2 2 2 3 6 7 8 8 10 11 11 10 12 12 13 13 12 14 15 16 15 15 15 14 14 14 14 14 15 15
5 4 3 4 3 3 2 3 3 3 3 3 3 4 4 5 6 8 9 10 11 13 14 15 14 13 12 13 13 13 14 15 16 16 16 15 14 14 14 14 14 15 15
5 3 4 4 4 3 3 4 4 5 5 6 7 8 8 9 9 10 11 13 13 15 16 16 16 16 14 14 14 14 14 15 16 16 16 15 14 14 15 15 16 17 17
5 5 5 5 6 5 4 6 8 7 8 9 10 11 10 10 11 12 13 14 14 15 15 16 17 17 17 16 15 15 15 15 16 15 15 14 14 15 16 17 17 17 17
6 5 6 8 8 7 8 8 9 9 9 10 11 11 12 13 13 13 13 13 14 15 16 16 17 18 18 18 18 17 17 17 16 16 15 15 16 16 17 17 17 17 18
8 8 9 10 12 11 9 8 7 9 11 12 13 14 14 15 15 15 14 14 14 13 14 15 16 18 19 18 17 17 17 17 16 16 16 17 18 17 18 18 18 18 18
12 12 12 12 13 14 14 13 11 10 12 14 14 14 14 15 15 16 17 15 15 15 15 16 16 17 17 16 16 16 16 16 17 17 18 19 18 18 18 18 18 19 20